Theta_e
313 315 317 320 322 323 327 329 331 337 331 323 327 328 322 322 327 327 327 327 328 326 325 326 326 327 333 338 337 338 337 340 341 343 346 341 339 339 339 339 335 332 335 335 329 320 318 318 317 319 326 331 333 335 335 334 332 330 332 334 333 332 330 331 331 333 335 335 334 331 331 334 334 334 333 332 331 331 331 332 332 332 332 332 331 331 331 331 330 330 330 331 331 331 330 330 331
313 315 321 323 323 323 332 333 330 334 324 318 323 324 322 321 324 326 326 327 327 328 328 328 328 328 333 337 336 341 341 338 339 341 340 338 340 339 339 338 334 333 335 335 327 320 320 318 317 317 324 331 333 334 335 334 333 332 334 334 333 332 331 332 332 333 334 334 334 333 332 332 332 332 332 331 330 330 330 331 331 331 331 331 331 331 331 330 330 330 329 330 330 329 329 330 331
315 318 323 325 326 325 330 333 327 325 319 318 322 323 323 321 323 325 327 328 329 331 331 330 329 327 332 339 339 343 342 336 337 337 337 339 340 338 339 338 335 333 335 334 325 321 320 318 317 317 324 331 332 334 335 334 333 333 334 334 333 332 332 331 330 331 332 332 333 333 333 333 331 330 330 330 329 329 329 329 329 330 330 330 331 331 331 330 330 330 329 329 329 327 328 330 330
317 320 323 323 330 330 329 330 329 323 317 322 321 320 325 325 326 326 329 331 333 332 328 330 330 324 333 342 338 340 340 336 337 337 337 338 340 339 339 338 336 335 336 334 326 322 321 319 317 317 323 329 332 333 334 334 333 333 333 334 333 332 332 331 330 330 332 332 332 331 332 332 331 330 330 331 330 330 330 329 330 330 331 331 330 331 331 331 330 330 330 328 328 328 328 329 329
320 321 322 322 331 334 329 328 331 323 318 326 321 322 328 326 327 327 329 331 334 333 329 331 327 324 333 338 337 340 339 336 336 336 336 338 340 339 339 338 337 337 338 335 327 323 321 319 317 316 321 328 331 332 334 333 333 333 333 334 333 332 332 331 330 330 332 331 330 331 332 332 331 330 331 331 332 332 331 330 330 331 332 332 331 331 331 330 330 330 329 328 329 329 328 329 329
322 322 323 321 327 328 327 327 329 325 322 328 322 323 329 326 327 327 328 328 330 332 329 330 327 329 336 336 336 339 337 337 337 336 337 338 339 339 339 338 338 339 339 337 329 324 322 320 318 316 319 326 331 332 334 333 332 334 333 334 334 332 332 331 330 330 330 329 331 333 332 331 330 329 330 331 332 332 331 331 331 331 331 331 330 330 330 329 330 330 329 327 328 328 328 329 328
321 324 327 325 326 325 327 326 327 328 321 323 323 325 328 326 327 327 329 327 326 327 327 329 329 333 336 336 339 338 335 337 337 336 337 338 338 338 338 338 339 340 339 337 330 326 323 321 319 316 317 323 330 332 334 334 332 333 334 334 334 333 332 332 331 330 329 329 331 332 331 331 331 330 329 330 331 331 331 331 330 329 329 330 330 330 329 329 329 330 329 327 327 327 327 327 328
320 325 331 330 332 327 326 325 328 329 319 319 324 326 326 325 326 326 328 328 326 326 327 327 327 332 332 336 342 338 335 337 336 336 337 337 336 337 338 338 339 339 339 337 331 327 324 323 321 317 317 321 327 330 333 334 332 333 333 333 332 332 332 332 330 329 328 329 330 330 331 331 331 330 328 328 330 330 330 330 330 330 330 330 330 330 330 330 329 329 328 327 326 326 325 326 328
320 324 330 330 332 329 326 326 327 325 319 322 324 324 325 324 325 325 326 326 325 326 328 326 326 333 334 339 341 336 336 337 335 336 337 336 336 336 337 338 339 339 339 336 332 329 325 325 322 318 317 319 324 328 332 334 334 333 332 333 332 330 331 331 330 329 329 329 329 329 330 330 329 329 329 330 331 330 330 331 330 330 330 329 329 330 330 330 329 328 327 326 325 326 325 327 328
323 323 329 330 328 325 325 327 324 320 319 322 323 323 323 323 324 323 324 323 324 326 327 326 331 336 336 340 340 336 336 336 335 336 336 335 336 336 337 338 338 339 339 335 332 330 328 327 324 320 318 318 320 324 329 332 333 334 332 333 332 330 331 331 329 329 329 328 328 328 328 328 328 329 329 330 331 331 330 330 330 329 329 329 329 329 329 329 329 328 327 326 325 326 326 327 327
328 324 327 328 325 322 324 324 322 322 319 320 322 321 321 322 323 322 322 322 324 327 324 324 332 337 338 341 340 336 336 335 336 336 335 335 336 337 337 338 338 339 339 335 333 332 329 329 326 322 320 319 317 319 324 327 329 331 331 332 331 331 330 330 330 329 328 328 328 328 328 328 328 329 330 330 330 330 329 329 329 329 329 328 328 328 328 328 328 328 328 326 326 326 326 326 326
331 329 328 327 328 328 327 324 320 321 319 321 322 320 321 322 322 321 322 323 326 327 324 323 327 335 340 343 340 335 336 336 337 336 335 336 336 337 337 338 338 339 339 336 333 333 331 330 328 324 322 321 318 317 319 323 326 328 329 329 330 332 329 328 329 329 328 328 328 328 328 329 328 330 330 329 329 329 329 329 329 329 329 329 328 328 328 328 327 327 327 326 326 326 326 326 325
332 332 326 326 332 331 327 324 321 322 320 322 322 321 322 323 322 321 322 325 326 325 324 322 324 335 341 341 339 335 336 336 336 336 335 337 337 338 338 338 339 339 340 336 334 333 332 332 331 328 324 322 321 318 317 320 324 325 324 325 328 330 329 327 328 328 328 328 327 326 327 327 328 329 329 329 329 328 328 329 329 329 329 328 328 327 326 327 327 327 326 325 326 326 326 326 325
329 331 325 328 334 327 324 322 320 321 318 321 321 321 323 323 321 319 322 323 323 323 322 321 326 341 343 338 338 336 336 335 336 336 336 337 337 338 338 338 338 339 339 337 335 334 334 333 332 331 327 324 323 321 318 317 320 322 321 321 323 325 326 326 326 326 326 327 327 326 325 326 326 327 328 328 328 327 327 328 328 328 328 327 327 326 326 326 327 326 325 325 326 326 325 325 324
326 333 327 327 331 326 328 325 322 322 318 321 321 321 323 321 320 319 321 323 322 321 319 319 323 334 340 340 341 336 335 336 336 336 336 337 336 338 338 338 339 338 339 338 337 334 334 334 333 332 330 328 325 324 322 318 318 319 320 320 321 321 321 324 325 325 325 326 326 326 325 325 325 325 326 327 327 327 327 327 326 326 326 326 326 326 326 325 325 325 325 325 325 325 325 325 324
328 335 328 326 331 328 330 326 323 325 320 322 320 321 323 318 321 319 318 322 321 319 321 321 321 330 337 341 341 334 334 336 335 336 337 337 336 337 338 338 338 339 339 338 338 337 336 335 334 334 332 330 328 326 325 321 319 318 319 319 320 320 319 321 322 323 323 324 325 326 325 325 324 323 324 325 326 326 327 326 325 324 324 326 326 325 325 323 323 324 324 325 325 325 324 324 323
328 332 329 327 331 329 330 325 323 326 322 322 319 321 323 318 319 317 316 320 320 322 328 327 326 336 341 338 335 334 336 336 336 336 336 337 336 337 338 338 338 339 339 338 339 338 338 337 336 334 333 333 331 328 327 325 322 320 319 318 319 319 318 319 320 320 320 320 322 324 325 323 323 322 322 323 324 325 326 326 325 324 322 323 323 323 323 321 320 321 322 323 323 323 323 324 323
327 331 329 326 331 330 330 326 324 326 321 321 320 321 323 320 319 316 317 318 319 324 327 330 335 336 336 335 334 335 336 335 336 336 336 336 336 337 337 338 337 338 339 338 339 339 339 338 337 336 335 335 334 332 329 327 325 323 321 320 318 318 318 317 318 318 317 317 319 321 323 322 322 322 321 320 321 323 324 325 325 324 322 321 321 320 321 319 318 320 321 322 323 323 322 322 322
327 331 326 329 337 330 323 321 322 322 319 320 320 320 322 321 319 317 318 318 320 324 323 331 341 338 335 335 335 336 335 336 336 335 336 335 336 336 337 337 337 337 338 338 338 338 339 338 338 337 336 337 336 335 333 330 328 326 324 322 320 319 318 318 318 317 316 320 324 324 324 324 323 324 322 319 318 319 322 324 324 323 322 320 320 319 318 317 317 320 323 324 324 324 323 322 321
326 326 323 334 337 323 317 318 320 321 319 320 319 319 320 320 318 317 318 319 319 323 324 332 341 339 338 335 335 336 335 336 335 335 335 334 335 336 336 337 337 337 337 337 338 338 338 338 338 338 338 338 337 337 336 333 331 328 327 326 324 321 320 318 319 318 317 324 329 327 327 327 325 326 326 321 317 317 318 320 320 319 320 319 319 318 317 317 317 320 323 324 324 324 324 324 322
321 321 325 333 326 318 318 317 318 320 319 319 319 319 319 318 317 317 318 318 318 319 321 331 339 339 338 336 334 335 335 335 335 334 334 334 335 335 336 336 337 337 336 337 337 337 338 338 338 338 338 338 337 337 337 336 333 331 330 328 327 325 323 320 321 322 320 325 329 328 328 327 326 327 327 324 319 317 316 316 316 316 316 317 318 318 317 317 317 319 322 322 323 324 323 324 323
319 321 325 324 319 319 318 316 317 318 318 319 319 319 319 317 317 318 318 319 319 318 317 324 335 338 337 335 335 334 334 334 334 334 334 334 334 335 335 336 336 336 336 336 337 337 338 338 338 338 339 338 338 337 337 337 335 333 332 331 330 328 325 323 324 326 324 325 329 329 328 327 327 326 326 326 320 317 317 316 315 316 316 316 317 318 317 317 317 318 320 321 322 323 324 323 323
320 322 322 319 318 319 317 317 317 317 319 319 320 319 317 317 317 317 317 319 319 317 316 320 331 336 335 335 334 334 334 334 334 334 334 334 333 334 335 335 335 335 336 335 335 337 337 338 338 338 339 338 338 338 337 337 335 334 334 333 332 330 328 327 327 328 326 326 327 329 328 327 328 325 324 324 317 317 322 320 317 318 320 318 317 318 317 317 317 317 318 320 320 321 322 323 323
319 321 320 317 317 318 316 316 316 318 320 319 319 318 317 319 318 317 316 317 317 317 316 317 328 335 335 334 334 333 334 333 334 334 334 334 334 334 334 334 334 335 336 335 335 336 337 337 337 337 338 338 338 338 337 337 335 335 335 334 333 332 330 329 328 329 328 327 327 328 329 329 327 323 325 322 315 320 326 324 321 322 323 321 319 318 318 317 315 315 316 318 319 319 319 319 320
318 319 319 317 316 316 316 316 316 318 318 318 318 318 318 318 317 317 316 316 317 320 321 321 328 334 334 335 334 333 333 333 333 334 334 334 334 334 334 334 334 334 335 335 335 336 337 337 337 337 337 338 338 338 337 337 336 336 336 335 334 333 332 330 329 329 330 329 328 328 328 329 324 322 327 323 318 324 327 325 323 324 324 324 321 318 318 318 315 314 315 316 317 317 316 315 316
317 319 318 316 315 314 315 315 316 317 316 316 318 318 316 315 315 316 315 316 318 323 328 328 330 334 335 334 333 332 332 333 333 334 335 335 335 335 334 334 334 334 334 335 335 336 336 336 337 336 337 337 337 338 337 337 336 336 336 335 335 333 332 331 330 329 330 330 329 329 328 327 325 324 327 326 323 325 327 325 324 325 325 325 323 319 317 317 315 313 313 314 315 316 315 314 314
317 318 318 316 315 314 315 315 315 316 316 316 318 317 315 315 315 316 316 315 319 324 328 330 331 333 334 333 332 332 332 333 333 334 335 335 335 335 335 335 334 334 334 334 335 335 336 336 336 336 336 336 336 337 336 336 336 336 336 335 335 334 333 332 331 329 330 330 330 330 328 327 327 327 327 327 326 325 326 325 324 325 325 325 323 320 318 317 315 313 312 312 313 314 314 313 313
317 317 317 315 315 314 315 315 315 316 315 316 319 316 315 315 315 318 318 316 320 325 325 328 331 332 333 332 331 331 332 333 334 334 334 334 335 336 335 335 335 334 334 334 334 334 335 335 336 336 336 336 336 336 335 336 336 335 335 335 335 335 334 333 332 330 330 330 330 330 329 328 328 327 327 327 327 327 326 325 324 324 324 324 323 321 320 318 316 313 312 313 314 314 314 314 314
315 316 317 314 314 315 315 315 315 316 315 316 317 315 316 316 317 320 318 315 318 323 324 324 327 329 331 332 331 331 331 332 333 333 334 335 335 336 335 335 335 335 335 335 334 334 334 335 335 335 336 336 336 335 334 334 335 335 335 334 335 335 334 333 332 331 330 330 330 330 329 329 328 327 328 328 328 328 327 326 325 324 324 324 323 322 321 319 318 315 313 316 317 316 316 316 317
315 315 317 316 314 315 315 315 315 315 315 316 314 315 320 319 317 319 316 314 316 320 323 322 322 323 325 329 331 331 330 331 332 333 334 335 335 335 335 335 336 336 335 335 335 334 334 335 335 335 335 335 336 336 335 333 334 335 335 335 334 334 334 333 333 331 330 329 329 330 329 329 329 328 328 328 328 328 327 327 326 326 325 324 323 322 321 320 319 316 315 316 317 317 317 318 318
316 315 317 318 317 317 316 315 316 315 315 315 312 316 323 321 316 316 314 315 315 318 321 322 322 319 321 326 329 330 329 329 332 333 334 335 335 335 335 335 335 336 336 335 335 335 334 334 335 335 335 335 336 336 335 334 334 334 335 335 334 334 334 333 333 332 331 330 329 329 329 329 329 328 328 328 328 327 327 327 327 327 326 325 324 323 322 321 320 319 317 315 315 315 315 317 318
315 315 318 318 317 319 317 314 316 315 314 314 312 315 321 318 316 314 314 315 315 316 318 320 321 319 319 323 327 330 329 327 330 332 334 334 335 335 335 335 335 335 336 336 336 335 335 334 335 335 334 334 336 336 336 335 335 334 335 335 335 334 334 334 334 333 333 331 330 330 329 329 328 328 328 327 327 327 327 327 327 326 326 326 325 324 324 322 322 321 320 317 315 314 314 315 316
315 317 322 320 317 318 317 315 316 316 314 313 312 315 317 315 314 313 313 315 315 316 316 317 319 318 319 322 326 330 330 330 330 330 332 334 334 335 335 335 335 335 336 336 336 335 335 334 335 335 334 334 336 336 336 336 335 334 334 334 335 335 334 334 334 334 333 333 331 330 330 329 328 328 328 327 327 327 327 327 327 327 326 326 326 325 325 325 324 323 322 321 318 316 315 314 314
316 315 320 322 318 316 317 316 316 316 315 313 313 315 317 315 313 313 315 314 314 316 316 316 317 317 319 324 328 329 331 333 331 329 331 333 334 334 334 335 335 335 336 335 335 335 335 335 334 335 334 334 335 336 336 335 335 334 333 334 334 334 334 334 334 334 334 333 332 331 331 330 329 329 328 328 327 326 327 327 327 327 326 326 326 326 326 326 326 324 323 322 320 318 317 316 316
320 316 316 320 317 315 317 317 316 316 314 314 313 313 317 316 314 314 314 314 315 316 315 315 315 317 318 323 328 328 329 332 330 328 331 333 333 334 334 334 335 335 335 335 335 335 335 335 335 335 334 334 334 335 335 335 334 333 333 333 333 333 333 333 334 334 334 333 333 332 332 331 330 330 329 329 327 327 327 327 327 327 327 327 326 325 325 325 325 325 324 322 321 319 318 317 317
321 319 317 320 319 315 318 318 316 315 314 316 315 313 316 316 314 314 314 314 315 314 315 315 314 316 317 320 324 325 326 326 326 327 331 332 333 334 334 334 334 334 335 335 334 335 335 335 334 334 334 334 333 334 335 335 334 334 333 332 332 331 332 332 333 333 333 333 333 333 333 332 331 330 330 330 329 329 329 328 328 328 327 327 326 326 325 325 325 326 325 324 322 320 318 318 317
315 317 316 318 320 316 317 317 315 314 315 315 315 314 314 314 315 316 315 314 315 314 314 315 315 315 315 318 320 322 323 320 320 325 329 330 332 333 333 333 333 333 334 334 335 335 335 335 334 334 334 334 334 333 334 335 334 334 334 333 332 332 332 332 332 331 332 332 332 332 332 332 332 331 331 330 330 330 329 329 328 328 327 327 327 326 326 326 326 326 326 325 323 321 319 318 318
311 315 315 316 320 317 315 315 314 313 314 315 316 315 314 315 315 315 315 314 314 314 314 314 315 315 315 316 318 319 318 316 317 321 325 328 331 331 332 332 332 333 333 334 334 334 335 335 335 335 334 334 333 333 333 334 334 333 332 333 333 333 332 331 331 331 330 331 331 332 332 331 332 332 332 331 331 330 330 329 329 328 327 326 326 327 327 327 327 326 325 324 323 321 320 319 318
312 316 316 315 318 318 314 315 314 313 313 316 317 315 314 315 314 314 315 314 313 312 313 314 314 316 316 316 317 317 316 320 322 320 320 325 328 330 331 332 332 332 332 333 334 334 335 335 335 335 335 334 333 333 333 333 333 331 331 332 332 332 332 331 331 331 331 331 331 331 331 332 332 332 331 331 331 330 330 330 329 329 328 327 327 327 327 327 327 326 325 324 323 321 320 320 319
313 317 317 316 316 316 315 314 314 313 313 315 317 316 316 315 315 315 315 314 314 313 313 313 314 316 317 317 318 317 317 323 327 322 319 322 326 329 330 331 332 331 331 333 334 335 335 335 335 335 334 334 334 333 333 332 331 331 331 331 331 331 331 331 331 331 331 331 330 331 331 332 332 331 331 332 332 331 330 330 329 328 327 327 327 327 327 327 327 327 326 325 323 321 320 320 320
316 319 320 321 319 317 316 315 314 313 313 314 314 315 317 316 315 316 316 314 313 314 314 313 314 315 316 317 317 317 318 322 326 325 322 320 322 327 329 330 331 331 331 332 334 335 335 335 334 334 334 334 334 333 333 332 331 332 331 331 331 331 331 331 331 331 331 331 331 331 331 331 332 331 332 332 331 330 329 329 328 328 327 328 328 327 327 327 327 327 326 325 323 322 321 321 320
316 320 323 324 320 318 318 317 316 313 313 317 313 312 323 327 318 314 314 314 313 313 314 314 314 314 315 316 317 317 318 320 324 323 319 317 320 324 327 329 330 331 331 332 333 334 335 335 335 334 334 334 334 333 333 333 332 332 332 332 331 331 331 330 331 331 331 331 331 331 331 331 332 332 331 331 331 330 328 328 328 329 329 329 328 328 328 327 327 327 326 325 324 324 322 320 319
313 318 322 322 321 322 321 318 319 318 316 316 312 313 323 325 318 316 314 312 313 313 314 315 313 314 316 315 318 321 320 320 322 319 315 314 316 319 322 326 328 329 330 331 332 333 334 334 334 334 334 334 334 333 333 333 332 332 332 332 331 331 331 330 330 331 331 331 331 331 331 331 331 331 331 330 330 329 330 330 331 330 330 329 329 328 327 326 325 326 326 326 325 324 322 320 319
316 320 323 325 323 324 322 317 322 325 318 315 316 315 316 316 317 321 318 313 313 313 314 316 315 315 317 317 320 324 324 323 323 322 319 313 312 314 317 322 327 328 329 329 330 331 332 332 333 333 333 333 333 333 332 332 332 332 332 331 331 331 330 330 330 330 330 330 329 329 329 329 329 329 329 328 327 327 328 329 330 329 329 328 327 325 324 325 326 327 326 325 324 322 321 320 319
320 323 324 325 323 324 324 319 321 322 317 320 322 315 313 320 327 324 318 315 315 316 315 316 317 317 317 318 319 322 324 325 325 325 319 311 309 313 315 317 321 323 325 327 328 329 329 330 331 332 332 332 332 333 332 332 332 331 331 331 331 331 330 330 329 328 328 327 327 327 327 327 327 327 327 326 326 326 327 327 328 328 328 327 327 326 326 327 327 326 325 324 323 322 321 320 320
319 324 326 327 327 325 321 322 324 317 315 324 326 316 312 322 331 322 313 316 318 317 316 314 316 317 316 317 319 322 325 327 330 325 314 309 311 312 313 314 315 316 318 320 322 325 327 328 329 330 331 332 332 332 332 332 331 331 331 331 331 331 330 329 328 327 326 326 325 325 325 325 325 325 326 326 326 327 326 326 326 327 327 327 327 327 327 327 327 326 325 324 323 322 322 321 321
320 327 327 326 329 328 325 331 329 315 320 332 329 320 312 315 325 324 315 318 319 317 316 315 317 317 317 320 322 326 329 329 330 324 313 310 312 312 312 312 313 312 313 313 315 319 324 326 327 329 329 330 331 331 331 331 331 330 330 330 330 330 328 327 326 326 325 325 325 325 325 325 325 324 324 325 325 325 324 323 324 324 325 325 325 325 325 325 325 325 324 323 323 322 322 322 321
323 329 326 319 323 328 329 330 321 315 327 333 323 318 314 315 323 324 319 319 319 317 316 319 322 322 322 324 324 326 331 330 328 325 318 313 311 311 312 312 312 312 312 312 312 315 321 324 325 327 328 328 329 329 330 330 330 330 329 329 329 328 327 326 326 325 325 324 324 324 324 324 324 324 324 323 323 322 321 320 320 320 321 321 322 322 322 322 322 322 322 322 323 322 322 322 321
323 324 319 317 319 320 322 325 320 320 325 320 315 316 316 317 319 318 318 317 316 318 319 322 325 324 323 323 323 325 329 330 327 325 323 317 311 310 312 312 312 312 311 311 311 312 316 319 321 324 325 326 327 328 328 328 329 329 328 328 327 326 326 325 325 325 324 323 323 324 323 323 323 322 321 321 320 319 318 318 318 318 317 317 318 319 320 320 320 320 320 320 321 322 322 321 321
319 318 315 320 323 315 315 321 320 320 321 315 313 316 318 318 317 316 317 315 315 320 323 324 323 323 323 323 324 325 325 327 327 325 326 321 311 309 312 312 312 312 311 311 310 310 312 314 316 319 322 323 324 325 325 326 327 326 326 325 325 324 324 324 324 324 323 322 322 322 321 320 319 318 317 318 319 318 319 319 318 318 317 315 316 317 318 319 319 319 319 320 320 320 321 320 319
319 322 318 321 326 321 320 322 322 322 322 316 311 315 323 320 316 318 316 312 315 319 321 321 321 322 324 324 324 324 323 325 327 326 325 318 310 310 313 313 313 313 312 311 310 310 310 311 314 316 319 320 321 322 323 324 324 324 323 323 323 323 323 323 323 322 322 321 321 320 319 318 317 317 317 318 319 318 318 319 319 318 317 316 315 315 316 317 317 318 318 318 318 318 318 318 318
320 323 321 321 324 330 327 323 328 329 321 316 314 319 327 319 314 318 315 312 314 315 317 320 321 322 323 323 323 322 323 324 324 325 325 317 310 312 314 313 314 313 312 312 311 312 312 312 315 316 318 320 320 321 322 322 322 322 322 321 322 323 323 322 322 321 321 320 320 319 319 318 318 318 318 318 318 318 317 318 318 317 317 316 315 314 313 314 314 314 315 314 314 314 315 315 315
319 319 323 325 322 328 324 315 318 320 318 321 316 317 322 316 314 318 314 313 313 311 314 316 319 322 323 323 321 321 324 323 323 324 323 316 311 313 315 315 315 315 314 313 313 314 314 314 317 317 319 320 320 320 320 321 321 320 319 319 320 321 320 320 319 319 318 318 318 319 318 318 318 317 317 317 317 317 317 316 316 315 315 315 314 314 313 313 313 313 313 313 312 312 312 312 312
319 318 322 322 317 321 321 314 315 314 318 324 316 314 319 316 318 320 313 313 314 312 313 313 315 320 323 325 322 321 323 322 322 322 318 313 311 313 315 315 316 316 316 315 315 316 316 316 318 318 319 320 320 320 320 320 319 317 316 317 318 318 317 317 317 317 316 317 317 318 317 317 317 317 316 315 315 314 314 313 313 313 313 313 313 313 312 312 312 312 312 313 312 312 311 311 311
317 319 319 319 318 320 319 317 318 315 315 322 317 315 319 317 321 322 315 314 315 312 313 312 314 318 322 325 323 321 322 322 321 321 318 313 310 312 314 315 317 317 317 317 317 317 318 318 318 318 318 318 318 318 318 318 317 316 316 316 316 316 316 315 316 316 316 317 317 317 317 316 315 314 313 312 311 311 311 310 310 310 310 310 311 311 311 310 310 311 311 311 311 311 310 310 310
314 316 314 316 319 321 319 317 321 321 318 322 319 316 321 324 324 325 319 319 316 312 313 312 312 317 321 324 323 322 322 322 320 320 320 314 308 310 313 314 316 317 317 318 318 319 319 318 317 317 316 316 316 316 316 317 317 316 316 316 316 316 316 316 316 315 315 315 315 314 314 313 312 311 311 310 309 309 309 309 309 309 309 309 309 309 309 309 309 309 309 309 309 308 308 308 308
315 315 313 314 315 317 317 317 323 326 322 322 319 318 331 333 322 320 318 317 316 312 312 312 312 316 320 321 322 322 321 321 319 319 319 311 307 310 312 313 314 315 316 317 317 318 318 317 317 317 317 317 317 317 318 318 318 317 317 316 316 316 315 315 314 313 312 311 311 311 310 310 309 309 309 308 308 307 307 307 307 308 307 307 308 308 308 308 308 308 308 308 307 306 306 306 306
315 314 315 316 315 317 317 316 321 322 319 326 323 319 336 338 319 315 316 315 316 313 311 313 312 315 320 320 320 320 320 321 319 319 317 309 306 308 310 311 312 313 313 314 314 315 315 316 316 316 316 317 316 317 317 316 316 315 315 314 314 313 312 312 311 310 309 309 309 309 308 308 307 307 307 306 306 306 306 306 306 306 306 306 306 306 306 307 307 307 307 306 306 305 304 304 304
Wind_Speed
8 8 6 4 6 9 8 1 2 3 2 1 3 0 0 2 4 5 5 5 4 2 1 3 4 5 5 8 10 8 6 2 2 3 2 6 17 23 21 20 20 19 18 16 15 14 13 14 14 15 17 17 17 15 14 17 19 20 20 19 19 19 19 19 19 19 19 19 20 21 20 19 20 20 21 22 22 22 22 21 22 22 22 22 22 22 22 21 21 20 19 19 21 24 26 26 26
8 8 5 6 5 3 3 2 2 3 3 2 4 2 4 2 5 6 6 5 4 2 2 6 8 9 10 11 9 7 8 6 2 3 6 19 25 23 23 20 19 20 19 16 15 15 13 13 14 15 17 17 17 15 14 15 18 20 20 19 19 19 19 19 19 18 18 19 19 19 19 19 19 19 20 21 21 21 21 21 21 21 21 21 21 21 21 21 20 20 20 19 22 25 25 25 25
7 6 6 8 3 1 1 3 2 1 2 2 4 3 3 6 6 7 7 7 6 5 5 7 8 6 7 8 6 5 4 4 5 5 9 22 21 21 24 18 18 19 17 17 15 15 14 13 14 14 17 18 17 16 14 14 17 19 20 19 19 18 18 18 17 18 18 19 18 19 19 19 19 19 20 20 20 20 20 20 20 20 20 20 21 20 21 21 20 20 20 20 20 23 23 24 24
6 6 8 7 3 2 3 2 2 2 2 3 2 4 3 8 8 8 7 7 6 7 5 4 5 2 6 10 5 5 4 2 5 5 7 17 19 23 23 17 18 18 16 15 15 15 14 14 14 14 16 19 19 17 14 15 17 19 21 20 17 17 17 16 17 17 17 17 18 18 18 18 18 20 20 19 19 19 19 19 19 20 19 20 20 20 20 20 20 19 19 20 20 21 23 23 23
5 5 5 3 2 1 2 1 0 2 3 4 3 2 4 9 10 9 6 6 6 6 3 3 3 1 6 6 3 3 4 5 5 6 10 19 25 26 22 18 19 17 15 13 15 16 14 14 14 14 16 18 19 16 15 15 17 19 21 21 17 16 16 17 17 16 16 17 17 16 16 16 17 19 19 18 18 18 18 19 20 19 19 19 19 19 19 19 19 19 18 20 20 22 24 23 22
6 7 2 1 1 1 2 0 2 2 5 5 5 4 6 8 10 10 6 5 5 5 4 4 4 4 5 2 3 3 4 6 7 9 16 24 26 25 22 21 21 18 15 13 15 16 15 14 14 14 15 17 18 17 15 14 16 18 19 20 17 16 16 16 16 16 16 17 16 15 16 16 17 18 18 18 18 18 18 18 19 19 18 18 18 18 18 18 18 18 18 20 22 22 23 22 21
7 7 1 1 2 1 3 1 2 4 4 3 8 7 7 7 9 11 8 5 5 4 4 4 7 7 3 1 4 3 4 10 11 15 22 26 25 24 23 22 23 20 15 14 15 15 15 14 14 14 14 17 18 18 16 14 15 17 17 18 16 15 16 16 16 16 16 17 16 14 16 17 17 18 17 17 17 17 17 17 17 17 18 18 18 17 17 17 17 17 17 20 21 21 21 20 19
4 2 1 3 1 2 2 2 3 4 1 4 8 9 10 9 8 9 7 4 1 1 2 3 8 7 2 2 3 4 8 15 17 23 26 25 24 24 23 23 23 20 16 16 15 15 15 14 14 14 15 16 17 18 16 14 14 16 16 16 16 15 16 16 16 16 16 16 16 15 15 17 17 16 16 16 16 16 16 16 17 16 16 17 17 17 17 17 17 17 17 19 20 19 18 18 19
2 1 2 3 1 2 1 1 2 3 1 5 6 8 10 9 7 8 7 5 4 4 2 4 7 6 1 5 4 2 9 20 24 27 26 24 24 23 24 23 21 20 17 16 16 16 15 14 14 14 15 15 16 17 17 15 13 14 14 14 15 15 16 16 16 16 15 15 16 15 14 15 15 15 16 16 15 15 16 15 15 15 15 16 16 17 16 16 16 16 17 19 19 19 18 18 19
2 1 1 2 1 2 4 3 3 2 1 6 6 8 9 7 7 7 8 6 5 5 4 4 8 7 6 5 3 1 10 23 28 26 25 24 22 21 23 22 20 19 17 17 17 16 16 14 14 15 14 14 14 15 16 16 14 13 12 13 14 14 16 16 15 15 15 15 15 15 14 15 15 14 15 15 15 14 14 14 14 15 15 15 16 15 15 15 15 16 16 19 19 19 18 18 19
3 2 2 2 1 2 4 2 3 2 2 4 4 4 8 8 8 7 8 6 4 6 3 4 8 7 7 4 0 5 17 23 26 26 26 24 18 19 23 22 19 17 16 17 18 16 16 15 14 14 14 14 13 13 14 14 15 14 12 11 12 14 15 15 16 15 15 15 14 14 14 15 15 15 15 14 14 13 13 13 15 15 15 15 15 14 14 14 15 15 16 18 19 18 18 17 17
2 2 4 2 2 4 3 4 5 3 1 3 4 2 5 8 8 7 9 7 5 6 3 3 7 6 6 2 2 9 19 20 24 27 26 22 16 20 24 21 19 16 15 16 18 17 16 15 14 14 14 13 13 13 12 13 14 14 12 11 11 13 14 15 16 15 14 14 14 14 13 13 15 15 15 14 13 12 13 14 14 15 15 15 14 14 14 14 14 15 16 17 18 17 16 16 17
2 1 4 2 4 3 2 4 5 3 0 2 4 2 3 7 7 9 9 8 7 6 3 4 6 6 5 2 2 8 15 19 24 27 26 19 17 23 23 20 18 16 15 15 17 16 16 15 13 14 14 13 12 12 12 12 12 11 11 11 11 12 12 14 15 14 14 14 13 13 12 12 13 13 13 13 12 12 13 14 14 14 14 14 14 14 14 14 14 14 16 16 16 16 15 15 15
1 1 4 2 2 1 2 3 4 4 2 4 3 1 3 4 4 8 10 8 5 6 3 1 6 7 4 2 2 4 11 21 25 27 25 17 18 24 22 19 18 16 15 14 16 16 16 15 13 13 13 13 13 12 12 11 11 10 9 10 11 11 12 13 13 12 13 13 11 11 11 11 11 11 10 10 10 10 12 13 13 13 13 13 13 13 13 13 13 14 15 15 15 14 13 14 14
2 1 3 1 3 2 2 4 5 5 4 4 4 2 5 3 2 6 8 8 2 3 2 4 4 4 5 6 4 7 15 25 26 26 23 16 19 23 21 20 18 16 15 13 15 16 15 14 13 13 13 13 13 12 12 11 11 10 9 9 9 10 11 11 12 11 11 11 10 10 10 10 9 9 8 8 8 8 9 10 10 11 11 12 12 12 13 13 13 14 14 14 13 12 12 12 12
3 2 3 1 2 2 3 3 5 5 3 5 4 4 8 3 2 5 2 6 4 2 3 3 2 3 6 7 9 16 23 28 27 25 21 17 19 22 21 21 20 17 15 13 14 14 14 14 13 12 12 12 12 12 12 12 11 10 9 9 8 8 9 10 10 10 10 9 9 9 8 8 8 8 8 8 7 7 6 7 7 8 9 11 11 11 11 12 13 13 13 12 11 10 10 10 11
3 4 2 2 2 2 3 4 5 5 4 5 4 4 8 2 3 3 1 7 7 3 5 3 4 5 2 6 18 27 29 29 27 23 21 19 19 22 22 21 21 20 17 14 14 14 13 13 13 12 12 11 11 12 12 12 11 10 9 9 8 8 8 9 9 9 9 8 8 8 7 7 7 7 7 7 6 5 5 4 5 6 6 9 10 10 10 12 13 13 12 11 11 9 8 8 10
3 3 2 3 3 4 4 5 6 6 7 7 6 5 9 6 2 2 3 8 7 6 6 4 7 8 8 16 28 31 31 30 26 24 21 19 19 20 21 21 21 21 20 17 15 15 13 13 12 13 12 11 11 11 11 11 11 10 9 9 8 8 7 8 8 8 7 8 8 8 7 6 5 5 5 5 5 4 4 3 4 4 4 5 7 9 9 11 13 13 12 13 12 11 10 8 8
2 3 2 3 4 4 3 5 7 6 8 9 6 6 8 7 6 3 4 6 6 7 4 4 8 8 11 19 27 29 30 29 24 23 21 19 19 19 20 20 21 21 22 20 19 17 15 13 12 13 13 12 11 11 11 11 11 10 10 9 8 8 8 7 7 8 8 9 10 9 9 6 4 5 4 3 4 4 5 4 2 2 3 3 4 7 8 9 11 12 12 13 12 10 10 10 9
2 3 2 5 5 3 5 0 7 7 10 11 7 5 7 6 5 4 5 8 6 7 4 4 7 7 9 13 21 26 26 26 23 22 20 19 19 20 21 21 22 23 23 23 21 19 17 16 14 14 14 13 13 11 11 11 11 10 9 9 8 8 8 8 7 8 9 9 10 8 8 6 3 3 2 1 3 4 5 5 3 3 3 3 3 5 7 8 10 10 10 10 9 7 7 7 7
1 3 4 6 3 1 5 6 3 9 11 12 8 6 6 5 4 4 7 8 4 6 8 9 11 13 12 11 18 22 23 23 21 20 19 19 19 20 21 22 23 23 23 23 22 20 19 18 15 15 16 16 15 13 12 11 11 11 9 9 9 8 8 8 8 8 10 10 9 7 7 8 4 4 4 4 4 4 4 5 5 3 2 3 4 5 6 7 8 8 8 8 7 5 4 4 4
1 3 6 6 2 3 5 6 3 6 10 9 9 7 6 4 3 5 9 7 5 6 9 12 15 16 16 16 18 19 20 21 20 20 20 20 20 20 20 21 22 21 21 23 23 22 21 19 18 17 18 18 16 14 13 11 12 12 10 10 9 9 9 8 8 7 9 11 10 7 8 10 7 7 7 6 6 5 3 4 5 4 2 3 5 6 7 6 6 7 7 7 7 6 4 3 3
2 5 3 3 2 3 2 3 4 3 10 8 8 6 6 6 4 6 7 6 7 6 8 12 16 19 21 20 19 17 17 19 21 22 23 23 23 22 23 23 24 23 23 24 24 23 22 21 20 19 20 19 17 15 14 13 13 12 10 10 9 10 10 9 8 7 7 9 10 8 9 10 10 9 8 7 8 7 4 3 3 4 4 3 4 7 7 6 6 6 6 5 5 6 7 7 6
4 5 0 3 2 1 1 2 4 4 10 7 8 7 7 8 5 4 4 5 6 3 4 13 19 21 22 18 16 17 19 21 22 25 26 25 25 25 25 26 26 26 25 24 24 24 24 23 22 22 21 20 18 16 15 14 13 13 11 10 10 10 10 9 9 8 7 8 10 9 9 10 11 11 8 6 9 8 5 4 3 4 4 3 3 5 6 6 6 7 7 6 4 5 7 8 8
5 5 2 1 1 3 2 3 4 4 7 5 9 7 6 7 4 4 5 5 5 3 7 13 17 18 17 15 15 16 17 20 21 23 24 24 25 25 25 26 26 26 28 27 25 25 25 24 23 23 23 21 19 17 16 15 15 15 14 13 12 11 11 11 10 10 9 9 10 11 10 10 11 12 9 6 9 9 7 7 5 5 6 5 6 7 6 5 6 7 7 7 6 6 6 6 7
6 6 4 3 1 3 2 2 2 3 2 6 9 5 2 3 2 3 6 7 5 5 11 11 13 13 13 12 14 15 15 19 22 22 24 25 25 24 24 27 27 27 28 28 27 27 26 25 24 24 24 23 22 20 19 17 17 18 17 16 15 14 13 12 12 11 12 12 12 12 12 11 11 11 10 8 9 10 10 10 8 8 9 10 10 9 9 8 7 8 9 8 7 8 8 8 7
4 5 5 5 3 2 1 1 1 1 2 4 8 6 2 1 1 3 6 8 6 8 11 10 12 12 11 10 11 15 17 19 25 24 23 24 25 25 25 28 30 28 28 29 30 28 27 27 26 25 24 24 24 23 22 19 18 19 19 18 18 17 16 15 14 14 14 14 14 13 13 13 12 11 11 11 10 10 12 12 11 12 12 13 13 11 10 10 9 9 10 9 9 10 10 9 9
3 8 5 3 3 1 1 3 2 1 1 3 7 5 0 3 1 6 7 8 8 10 11 10 11 10 10 10 9 12 15 20 25 23 22 24 26 27 26 28 31 31 30 30 30 29 28 29 28 26 25 24 24 24 24 22 20 19 20 20 20 19 19 18 16 16 16 15 14 14 14 13 14 14 13 13 12 11 13 14 14 15 15 14 14 12 12 12 11 10 10 10 10 10 11 11 11
3 7 5 1 3 1 3 4 2 1 1 1 5 3 2 1 5 8 7 8 7 10 11 9 10 9 9 10 8 9 14 18 21 22 24 26 28 30 29 28 29 31 32 30 29 30 29 29 29 27 25 25 24 24 25 25 23 20 20 20 20 20 20 20 19 18 19 17 16 16 15 14 14 16 14 13 14 14 13 14 15 15 15 15 14 14 14 13 13 11 11 12 12 12 12 12 12
3 2 4 3 2 2 5 4 2 2 1 2 2 2 5 7 9 8 6 8 8 8 8 8 8 8 8 8 8 9 13 17 20 23 27 28 29 31 31 30 28 28 31 32 31 31 30 30 29 28 26 26 25 25 25 26 26 23 22 20 20 20 20 20 19 19 20 20 20 19 18 16 15 17 16 13 13 15 16 15 15 14 14 15 16 16 15 15 14 13 13 14 14 14 14 14 13
3 2 2 3 3 4 5 3 5 4 1 1 2 3 4 7 8 7 7 8 10 9 8 8 7 7 7 7 8 8 11 18 22 25 28 29 31 31 31 32 30 27 27 31 32 31 31 30 30 30 28 28 27 27 26 26 26 26 24 22 21 21 20 20 20 20 20 21 21 21 20 19 16 17 19 17 13 13 16 17 15 14 12 13 15 16 16 16 15 14 14 15 16 17 17 16 16
1 4 3 1 4 3 5 2 6 5 1 2 3 3 4 6 6 5 7 7 9 10 8 8 8 8 7 7 8 8 9 16 22 25 28 30 31 32 32 32 33 31 28 28 30 31 31 30 30 30 29 29 29 28 28 27 26 26 26 24 22 21 21 21 21 20 20 21 22 22 21 20 19 19 19 20 17 14 15 18 18 16 14 13 15 16 16 16 16 15 15 16 18 18 18 18 18
2 3 3 3 4 3 3 3 3 5 2 0 1 2 3 4 4 4 5 7 8 8 8 8 8 9 8 7 7 7 7 10 15 21 27 29 31 32 33 32 33 34 32 28 28 30 31 30 30 30 29 30 31 30 29 28 27 26 26 25 24 22 22 22 21 21 21 21 22 23 23 22 22 21 20 20 20 18 16 17 18 18 17 15 16 17 17 16 16 17 17 17 18 19 19 18 18
3 1 3 3 4 4 2 3 3 4 5 4 2 2 4 5 3 5 5 7 8 7 8 9 8 8 7 7 7 7 8 8 10 19 26 28 30 32 33 33 33 33 34 32 29 30 31 30 30 30 29 29 31 31 30 29 28 26 25 25 25 25 24 23 22 22 22 22 23 23 24 23 22 21 21 21 21 21 20 17 18 20 19 18 19 19 19 18 18 19 19 18 19 19 19 18 17
3 3 3 2 2 4 4 3 4 5 5 5 4 3 8 7 4 6 6 5 8 8 8 7 7 8 8 8 8 7 9 9 12 21 27 29 30 32 32 33 33 32 33 34 32 31 31 31 30 30 29 29 30 30 30 29 27 25 24 23 24 25 25 25 23 23 23 22 23 23 23 23 22 22 22 23 22 21 21 20 19 20 21 21 21 21 21 20 19 20 20 19 19 20 20 19 19
6 6 5 4 3 3 5 4 4 6 5 5 6 6 9 8 6 6 7 5 7 8 7 6 6 7 7 8 8 8 9 9 15 24 28 29 31 32 32 33 33 33 33 33 33 31 31 32 31 30 30 30 30 30 30 29 27 25 24 24 25 25 26 26 26 25 24 24 23 23 23 23 23 23 23 24 24 22 21 21 21 21 22 23 24 23 22 22 21 22 22 21 21 21 21 20 20
4 4 5 6 5 4 4 3 4 3 5 6 7 8 9 8 7 8 7 5 6 7 7 8 8 7 8 8 9 10 10 10 16 24 27 29 31 32 32 32 33 32 32 33 33 32 32 32 32 32 32 31 31 31 31 31 30 28 28 29 29 28 27 26 27 27 26 25 24 23 23 23 23 23 23 23 23 23 22 21 21 21 21 23 25 24 23 24 23 23 23 22 21 21 22 21 21
5 4 5 6 6 4 3 2 3 0 2 5 5 5 9 8 8 8 6 7 8 10 9 10 10 9 7 9 10 10 8 7 11 18 23 28 30 31 31 32 33 32 32 34 34 34 33 33 34 33 33 33 33 33 33 33 33 32 31 31 31 29 28 27 26 26 25 24 24 24 24 23 22 22 22 23 23 22 22 21 21 21 21 22 24 25 25 25 25 25 23 22 21 22 23 22 21
5 3 5 5 5 3 2 2 1 1 1 3 2 4 9 10 9 7 6 9 9 10 12 11 11 10 8 8 10 9 8 6 8 12 18 26 29 31 31 31 33 34 34 34 34 35 34 34 35 34 34 34 34 34 35 35 34 33 32 31 29 28 27 26 25 23 22 22 22 23 23 22 22 22 22 23 22 22 22 22 20 20 21 22 23 24 25 25 25 26 24 23 22 22 23 23 23
5 2 4 4 4 4 2 2 1 1 1 1 1 2 7 8 7 6 8 10 7 9 12 11 10 11 11 11 10 10 10 9 9 9 13 21 26 28 30 31 32 33 33 33 34 34 35 36 36 36 36 36 35 35 35 35 33 31 31 29 27 26 24 23 22 22 22 22 21 22 23 23 22 22 23 23 22 21 21 21 21 21 22 24 25 25 25 25 25 27 27 25 23 22 23 24 25
5 4 5 4 5 5 3 3 3 2 2 1 4 3 6 6 6 8 8 8 7 8 10 10 9 10 10 10 10 10 11 11 11 10 10 15 22 26 30 32 32 32 33 34 35 36 36 36 37 37 37 37 36 35 34 33 32 30 30 28 25 24 23 22 23 24 24 23 22 22 23 23 23 22 21 22 21 20 20 22 22 23 25 27 28 25 24 24 24 27 28 26 24 24 26 26 24
5 4 6 6 7 5 5 6 5 3 3 3 3 0 6 5 6 10 8 6 8 8 9 12 12 10 8 9 10 10 10 9 10 10 11 14 20 25 28 30 31 32 34 36 37 37 36 36 36 36 37 37 36 35 34 33 32 32 31 29 27 25 24 24 26 27 25 25 24 22 22 22 22 21 20 21 21 21 23 25 26 26 28 28 26 23 23 23 25 28 28 26 26 26 26 25 24
4 5 4 6 7 7 9 8 5 3 3 3 3 5 5 6 4 10 8 7 10 8 9 13 12 9 9 10 9 9 9 8 8 9 10 13 18 21 24 27 31 33 35 36 36 36 35 35 36 36 36 36 36 35 34 33 33 33 32 31 29 28 27 26 25 24 22 22 21 21 21 21 20 19 18 19 19 21 24 26 27 27 27 24 21 21 23 24 25 27 27 27 27 26 26 25 25
4 3 4 8 9 8 9 9 4 3 3 2 2 4 3 5 6 8 5 6 10 8 9 11 9 9 11 10 9 9 9 8 8 8 9 12 17 21 24 29 32 34 34 33 33 34 34 34 35 35 34 34 34 33 34 34 33 32 32 31 30 28 27 25 22 19 17 17 16 17 17 17 17 17 17 17 17 18 20 21 21 21 21 20 21 24 27 27 26 27 28 27 25 23 24 25 26
5 3 5 7 8 8 8 7 3 1 3 1 4 3 2 6 7 6 1 4 8 8 11 12 10 10 10 10 9 8 8 7 8 8 9 12 17 23 26 29 31 31 30 30 31 32 32 32 33 33 33 32 32 32 32 33 32 30 30 30 29 27 26 23 20 17 16 15 14 14 13 13 14 14 14 15 15 17 17 17 17 17 18 19 22 26 28 27 25 26 26 23 22 22 23 24 25
4 3 5 4 4 5 5 5 4 3 2 4 7 4 3 5 6 4 1 2 7 8 9 10 10 10 9 9 9 8 6 5 6 6 7 11 16 20 22 24 26 27 27 27 27 27 28 29 30 31 31 30 30 30 30 31 31 29 27 28 28 27 25 22 19 16 15 14 13 12 12 13 12 12 12 13 14 15 15 16 16 16 16 16 18 21 22 23 23 23 24 24 25 25 25 23 24
3 5 6 6 5 4 4 3 4 3 2 6 7 4 3 3 5 4 4 5 7 7 6 7 8 9 8 7 6 6 6 5 5 4 4 7 11 14 15 18 20 21 22 23 24 24 25 26 27 29 29 28 27 27 27 29 29 28 27 27 27 26 24 20 19 17 16 15 13 13 13 14 14 13 12 12 13 14 15 16 16 17 18 17 16 16 17 18 19 20 22 24 25 26 25 24 24
5 4 4 4 3 4 4 4 2 2 5 6 4 2 4 4 5 5 5 6 6 7 7 8 8 7 6 5 5 5 5 5 5 4 4 6 8 11 13 15 17 18 19 21 23 23 23 24 25 26 27 26 26 25 25 26 27 28 28 28 27 25 23 21 20 19 18 17 15 13 14 14 15 15 14 14 15 16 16 16 16 16 18 20 20 19 19 19 19 19 20 20 21 23 24 24 25
4 4 6 4 0 2 1 2 1 3 5 4 2 1 3 5 7 8 9 9 7 7 8 8 8 7 6 6 6 5 5 5 5 5 5 5 7 10 12 15 16 17 19 20 22 24 24 25 25 26 26 25 25 24 24 24 26 27 28 27 25 24 22 22 21 20 19 17 16 14 14 14 15 16 16 15 13 12 11 10 9 10 12 14 17 17 17 18 19 20 21 21 21 21 22 24 25
3 5 5 5 3 3 2 4 2 3 4 3 2 1 2 4 6 10 13 13 10 7 7 7 9 8 7 7 6 5 5 6 5 6 6 5 7 11 13 15 16 17 18 20 22 23 24 25 25 25 24 23 23 23 23 24 25 25 25 23 22 22 21 20 19 18 16 15 16 15 14 13 12 11 9 6 5 6 7 8 8 9 10 10 9 11 12 13 13 15 17 18 18 18 19 20 22
4 5 5 5 5 4 4 3 3 4 3 3 2 1 3 3 4 8 9 9 4 4 3 4 7 6 6 6 5 5 5 5 5 6 6 7 10 13 14 15 16 17 18 20 21 22 23 24 24 24 24 22 23 23 23 24 24 23 22 21 20 20 19 18 17 15 13 12 12 11 10 9 7 6 4 4 6 7 7 7 7 9 10 10 9 9 11 11 12 13 13 13 14 15 15 16 17
4 3 5 4 5 5 3 3 5 5 1 1 2 3 5 4 6 7 4 4 2 3 3 6 6 5 6 5 5 6 5 5 5 5 5 7 10 14 15 15 16 17 18 20 21 22 23 24 24 24 24 23 23 23 23 23 23 22 22 21 20 19 19 17 16 15 14 13 11 10 9 7 6 5 5 6 7 7 6 6 6 8 9 10 11 10 10 10 10 11 11 12 13 14 13 14 14
2 3 4 5 4 7 4 2 2 4 2 3 2 3 5 3 6 7 1 1 2 2 3 6 7 6 7 6 6 6 6 6 5 5 5 6 10 13 15 16 17 18 19 20 21 22 23 24 25 24 23 22 23 23 22 21 21 21 21 21 20 19 18 17 16 15 13 11 10 9 8 7 6 7 7 9 9 9 9 9 9 9 10 10 11 11 10 10 9 9 10 12 12 12 13 14 15
4 3 5 3 3 4 3 2 2 3 2 4 2 5 5 3 4 5 2 4 7 6 5 5 6 6 6 6 6 6 6 6 5 6 6 7 10 13 15 16 17 18 18 19 20 21 22 24 24 24 24 23 23 22 22 21 20 19 18 19 19 17 15 14 12 10 8 8 8 8 8 8 8 9 10 10 11 11 10 10 10 10 11 11 11 10 10 9 9 9 9 10 11 11 12 14 15
4 3 2 3 3 2 1 3 1 1 3 4 3 4 3 4 5 4 3 8 9 8 7 6 7 7 6 6 6 6 6 5 5 6 5 6 10 13 15 17 17 17 17 18 19 20 20 22 22 23 22 21 22 21 21 19 18 16 16 16 15 13 11 10 10 9 8 8 8 8 8 9 9 9 9 9 8 8 7 8 8 8 9 9 9 8 8 8 8 8 9 10 11 11 12 13 14
1 1 1 1 2 4 3 3 3 3 4 4 3 2 3 6 6 5 8 10 10 10 9 8 9 8 7 7 6 7 6 6 6 6 5 6 10 14 16 18 19 19 18 18 19 19 19 19 20 20 19 18 18 19 18 16 14 14 13 13 12 10 9 9 10 9 9 9 9 9 9 8 8 7 7 6 5 5 5 5 5 5 6 6 6 6 6 6 6 7 8 9 10 10 11 13 14
2 1 1 1 0 1 1 1 2 4 3 3 2 2 5 6 5 7 9 10 10 11 9 9 8 8 7 7 7 7 7 7 6 7 6 7 11 15 17 19 19 19 19 19 19 19 19 18 19 20 19 19 19 18 18 16 15 15 14 14 13 12 11 10 9 9 9 9 8 7 7 5 5 5 4 3 2 2 2 3 3 4 4 4 4 4 5 6 6 6 7 8 8 9 10 11 13
6 5 5 6 3 3 2 3 2 2 3 4 4 3 7 6 3 5 7 7 6 7 9 8 8 8 8 7 8 8 7 7 7 7 7 8 12 16 18 19 19 20 20 19 19 19 20 20 20 21 20 20 20 19 19 18 17 16 15 15 14 13 12 11 10 9 9 8 7 5 5 4 3 2 2 2 3 4 5 4 4 4 4 4 3 3 2 3 4 5 5 6 7 8 9 11 12
Wind_Direction
321 308 310 333 333 336 323 73 54 320 85 312 263 149 215 150 123 114 88 72 70 44 62 102 48 47 93 106 119 101 56 339 215 151 147 134 141 152 156 150 147 146 140 131 125 116 107 99 98 109 114 107 98 92 86 90 97 99 99 97 94 92 92 91 90 87 84 83 84 86 86 83 82 82 83 83 83 84 83 81 81 80 79 79 79 79 78 79 80 82 85 87 89 92 93 90 87
325 313 329 341 323 343 305 107 76 329 55 306 283 160 172 100 88 115 108 90 103 133 86 72 51 60 102 120 120 89 48 7 59 108 102 122 131 141 147 147 145 145 139 132 126 117 110 102 98 109 116 109 104 100 88 91 101 103 101 98 98 96 95 93 90 90 88 85 84 84 84 82 80 80 81 81 81 81 81 81 81 80 80 79 79 79 79 79 80 81 83 89 93 95 94 90 88
333 332 350 355 328 144 350 41 95 350 42 224 274 264 143 91 103 123 113 109 122 115 84 63 53 63 96 91 60 57 74 15 56 75 107 127 132 139 144 143 141 143 137 132 127 119 112 104 101 109 118 117 112 107 94 93 104 109 106 102 100 98 98 94 92 93 93 90 86 84 84 84 81 81 84 83 85 85 83 83 83 82 81 80 80 80 80 81 82 82 84 89 94 96 94 92 89
341 347 339 357 18 28 50 44 162 163 281 205 216 283 96 114 125 116 114 118 118 96 80 70 54 12 79 90 84 62 95 80 75 83 116 136 138 141 144 138 138 138 133 133 129 121 115 107 104 110 118 121 118 111 102 97 104 113 111 107 102 99 99 95 96 97 96 93 88 87 87 86 85 87 89 89 90 91 90 88 88 86 84 85 84 83 83 84 85 85 86 90 95 98 96 92 89
338 356 320 347 64 18 85 80 138 132 237 194 159 235 127 128 124 114 117 109 102 93 94 106 88 347 70 90 126 98 117 109 115 109 112 137 140 140 143 136 135 137 134 136 132 124 117 111 105 111 118 121 120 113 105 100 105 115 115 109 105 104 101 99 99 98 97 93 91 94 94 91 91 92 92 93 93 93 94 94 93 90 88 88 87 86 86 87 88 87 89 94 96 99 97 93 91
343 4 314 285 132 163 101 239 319 288 243 176 139 173 151 134 125 118 107 81 60 81 96 94 112 94 66 26 60 106 176 131 132 126 122 136 139 141 141 135 138 143 141 140 137 126 119 115 107 112 119 123 122 114 105 99 104 115 119 110 107 108 105 104 102 100 99 98 97 97 99 95 93 94 94 93 92 92 93 93 91 88 87 86 86 87 87 88 90 89 92 101 102 101 99 94 92
349 358 1 45 335 38 96 195 250 259 273 138 137 153 152 139 128 118 111 88 24 39 71 82 121 102 69 142 63 28 157 144 139 136 135 137 139 141 138 137 145 150 145 141 139 129 123 117 111 113 117 125 128 120 108 103 103 112 121 112 108 109 107 107 106 103 102 103 99 93 95 95 93 94 95 95 92 92 91 90 90 89 88 88 88 88 88 89 90 91 95 106 108 104 99 95 92
352 335 53 84 347 351 104 207 240 215 343 67 132 145 146 145 134 121 124 119 93 118 67 101 113 93 13 86 86 15 114 141 140 137 140 139 142 142 139 143 148 151 145 144 142 133 126 119 114 113 115 124 131 127 114 106 102 108 118 114 111 111 110 110 108 106 106 108 104 95 94 94 93 93 96 97 94 94 93 92 92 91 91 91 91 91 91 90 91 92 97 108 109 103 99 96 93
16 178 11 91 183 321 332 269 243 229 37 87 122 142 142 145 134 121 117 113 140 144 166 165 104 101 112 68 98 10 105 135 138 138 141 142 145 142 142 149 152 149 143 147 145 136 129 122 118 115 115 121 129 132 122 111 102 103 111 111 110 111 112 112 110 109 109 110 109 105 100 96 95 95 99 98 96 96 95 94 92 92 92 92 93 92 91 91 92 93 97 106 105 100 99 99 95
31 150 47 113 106 314 306 290 227 244 174 127 132 150 143 138 126 117 116 131 148 134 180 150 91 115 135 90 108 121 123 136 138 140 144 146 146 144 148 153 157 151 145 150 148 140 133 126 122 119 118 119 123 131 129 121 111 104 107 110 108 111 114 112 112 111 110 111 110 110 105 100 98 98 101 101 98 96 96 96 94 92 92 93 94 92 91 91 93 94 96 103 103 100 101 99 95
32 323 85 112 46 234 259 260 222 234 212 130 120 155 147 137 117 112 116 127 130 126 168 90 98 129 112 100 244 141 139 139 140 143 148 148 143 146 152 154 159 155 147 152 150 145 138 132 129 125 121 120 120 125 131 130 123 117 117 119 112 113 117 117 115 112 111 113 113 110 108 109 108 107 106 103 99 97 99 98 95 92 90 91 93 93 92 93 96 96 97 101 102 102 101 96 94
66 310 75 131 199 207 207 169 210 226 250 114 127 206 151 131 113 123 121 123 124 116 175 120 131 146 101 108 235 147 145 144 143 147 152 147 138 146 152 152 156 153 145 153 154 148 142 139 135 131 127 123 120 121 127 130 129 125 123 125 120 117 120 123 120 118 121 122 120 115 115 120 119 115 111 108 103 99 98 96 94 91 90 90 90 92 91 94 98 98 100 102 104 104 100 95 94
126 212 91 198 203 189 191 151 193 160 181 202 171 217 133 117 123 146 131 126 136 122 202 192 139 116 100 125 157 150 152 152 149 152 153 142 136 146 150 150 151 149 143 153 158 152 148 146 141 137 132 128 124 121 122 130 136 131 122 123 126 122 122 128 129 131 134 131 129 127 124 126 125 120 117 117 114 107 105 103 100 96 96 95 94 95 96 99 100 100 102 104 103 103 100 98 96
153 189 117 219 262 217 204 139 186 155 193 235 200 206 101 93 133 145 128 119 138 154 192 182 119 98 96 134 141 178 165 159 156 157 155 141 139 143 145 147 148 148 144 151 160 159 155 151 147 143 139 135 131 127 124 130 139 138 126 120 122 121 122 131 138 139 139 137 136 133 128 128 131 130 125 124 120 115 114 112 108 107 105 102 101 100 101 103 104 105 105 105 103 102 101 101 99
164 196 103 208 317 303 229 165 182 161 188 210 191 163 90 59 111 104 119 127 142 210 123 66 100 103 149 164 182 200 169 161 161 160 158 148 142 141 143 145 146 150 148 149 158 163 161 158 154 150 147 144 139 135 131 132 139 142 133 123 119 117 117 124 131 135 141 145 142 137 135 134 135 136 136 133 128 122 117 114 112 113 109 102 102 101 103 106 107 109 108 107 105 104 102 101 100
137 100 66 311 267 274 244 175 147 141 204 204 184 133 95 22 41 86 126 136 113 327 52 48 20 94 162 181 177 172 162 159 163 163 161 154 143 139 141 146 148 151 152 152 157 164 166 165 162 160 156 151 148 143 139 138 141 143 139 132 126 120 116 118 123 128 134 144 150 147 144 140 134 131 137 140 137 131 122 116 114 114 108 101 101 101 102 108 111 112 110 109 107 105 104 102 102
71 80 66 291 241 223 231 184 163 161 192 197 192 144 119 48 7 89 11 91 103 60 55 35 19 59 134 166 155 156 155 157 162 164 162 155 146 140 141 147 150 152 156 157 162 167 169 168 167 169 163 159 157 152 150 146 144 146 143 139 135 131 123 122 123 123 124 133 150 159 155 146 134 130 135 139 142 140 135 125 116 116 108 106 109 107 105 110 113 111 109 106 101 97 95 102 107
67 96 158 253 228 206 220 198 189 158 155 180 194 166 136 142 149 140 64 77 98 83 61 52 47 47 79 123 141 148 151 155 161 164 161 156 152 148 146 152 156 157 160 162 169 175 177 173 171 173 167 166 165 160 161 156 152 151 147 147 144 142 136 132 129 125 122 119 130 143 142 142 140 138 141 143 150 153 156 151 124 118 106 104 108 107 108 110 112 111 108 103 96 88 78 81 102
119 135 169 233 219 226 254 182 168 146 151 165 177 165 147 160 163 138 119 126 122 95 59 63 78 69 89 117 135 144 151 156 161 164 165 161 160 160 156 160 165 166 166 166 173 179 183 179 177 177 170 171 172 165 167 169 164 160 156 156 153 152 150 144 137 133 130 121 121 121 118 126 140 142 141 150 163 166 169 172 157 132 112 102 99 102 106 109 114 113 108 104 98 90 80 71 86
178 136 172 243 233 266 332 257 177 160 147 150 167 165 153 175 162 134 142 148 148 140 144 112 117 131 122 127 139 146 153 158 165 166 170 170 168 170 166 168 172 174 175 172 174 180 184 183 181 179 174 178 184 175 172 177 175 172 169 166 167 167 165 158 149 141 136 131 127 125 131 141 158 169 170 195 173 174 179 182 182 157 144 147 133 123 120 118 120 117 110 104 100 94 88 81 82
186 150 189 248 245 241 316 310 223 156 145 152 158 136 150 183 156 145 141 141 191 190 177 164 158 158 148 148 148 151 156 160 169 171 174 177 175 178 178 176 176 180 181 178 178 180 185 187 183 180 178 185 192 187 180 181 180 178 177 178 181 180 182 174 162 152 140 139 138 142 165 173 197 224 226 243 217 191 192 197 202 189 182 189 170 157 147 137 132 130 126 118 114 109 101 111 109
219 219 198 240 228 177 263 298 294 148 136 140 138 136 157 156 144 162 146 154 216 208 192 175 162 162 159 158 156 156 160 164 172 176 181 182 182 184 185 183 180 184 186 185 184 183 187 188 186 183 182 188 194 193 186 182 184 182 178 179 180 181 189 189 177 168 151 147 151 155 172 186 213 232 236 247 239 221 206 207 211 209 189 184 180 172 168 160 157 154 147 141 143 145 146 165 173
223 266 194 282 267 164 247 314 300 155 131 140 144 151 142 121 166 180 149 179 213 211 204 174 161 164 160 156 157 160 166 171 177 181 185 185 186 187 187 187 185 187 189 189 188 187 189 188 188 188 186 190 194 195 186 182 188 186 182 181 180 176 183 195 187 179 177 163 166 170 176 202 227 230 235 244 238 223 206 209 203 201 173 159 186 181 179 184 191 188 177 175 165 164 178 195 200
194 260 246 340 351 148 272 356 316 135 135 157 141 136 139 137 171 168 145 199 212 219 181 158 156 157 155 156 164 169 173 177 182 185 188 189 189 188 189 189 188 190 191 191 190 189 192 191 189 189 189 191 192 194 187 184 187 186 190 192 191 185 180 196 193 184 203 191 182 188 190 218 231 227 233 237 230 220 217 234 209 206 198 187 229 214 197 201 217 216 203 207 201 189 196 201 205
199 231 204 81 4 315 312 22 3 88 120 135 117 122 159 162 160 153 174 203 207 150 110 135 145 148 156 164 171 173 176 180 184 185 190 194 192 191 192 190 190 192 192 192 192 192 194 194 192 190 191 192 192 192 191 190 187 186 196 197 198 200 191 195 196 189 206 208 200 207 209 217 221 221 230 225 218 216 225 239 221 220 230 229 240 241 233 227 233 232 224 227 224 221 224 221 221
214 201 163 129 111 298 314 36 12 49 95 121 112 109 150 191 162 159 187 194 201 131 114 129 140 151 165 171 175 176 178 181 184 186 189 194 196 196 195 191 192 194 194 194 193 195 195 195 196 195 195 195 193 191 192 196 191 189 196 199 200 203 202 200 198 195 207 216 213 221 225 216 210 217 229 226 219 215 221 234 225 221 233 239 244 244 244 247 244 239 237 240 238 239 243 242 243
210 159 129 124 137 249 258 152 255 6 29 112 120 133 151 319 119 186 207 189 173 126 128 141 146 161 172 173 181 180 182 185 186 186 187 193 199 202 197 191 193 196 196 195 195 196 196 196 198 199 199 198 197 194 193 195 195 196 197 200 203 205 208 208 203 199 206 217 219 227 231 218 207 213 228 232 230 223 221 226 223 221 228 238 246 245 246 252 253 246 242 246 247 247 252 253 253
176 130 98 102 119 262 186 156 217 38 54 113 112 121 57 17 116 214 208 183 164 136 144 156 156 168 173 176 184 184 189 190 187 187 188 192 198 203 203 195 194 197 197 196 196 196 196 197 198 200 202 201 200 199 196 195 197 201 202 204 207 209 213 215 211 204 206 214 218 226 232 224 211 208 220 231 236 234 227 226 225 224 229 237 244 246 247 253 257 254 245 247 251 250 252 255 258
189 135 115 110 76 315 205 172 208 115 153 213 112 95 305 253 222 229 191 169 160 140 154 167 168 173 173 177 180 187 194 190 188 191 194 195 196 201 206 202 197 197 198 197 195 195 196 196 197 199 202 204 205 203 200 198 199 202 205 208 211 213 215 219 218 212 211 214 217 224 229 229 220 210 211 223 234 239 237 233 233 232 232 235 241 245 248 252 253 252 245 244 247 248 250 251 255
210 139 126 137 62 279 231 189 159 130 196 300 130 178 264 236 232 232 178 157 147 144 169 177 180 182 178 180 178 189 193 188 190 195 198 197 197 200 204 205 202 200 198 196 195 195 196 198 199 200 202 205 207 207 204 202 202 203 205 210 214 217 219 221 222 219 219 220 221 224 226 229 229 219 211 216 229 236 238 237 239 242 238 234 239 245 249 250 250 249 245 244 245 247 249 247 249
197 191 146 133 155 250 262 198 139 148 233 29 123 201 253 254 248 226 186 166 153 163 186 185 190 194 186 185 182 189 193 192 195 197 199 199 199 201 203 205 205 205 199 195 197 197 198 200 200 202 204 206 208 208 207 205 205 204 205 209 213 218 222 224 226 224 222 223 223 223 224 227 230 226 217 215 224 232 236 237 240 245 245 241 241 246 250 250 251 253 249 249 249 250 250 247 246
209 182 233 206 172 249 294 231 152 154 248 45 132 211 258 270 263 215 185 173 164 174 192 191 194 199 195 192 187 189 196 196 197 198 201 202 201 202 204 205 206 207 203 197 197 197 199 201 202 203 205 206 207 208 208 207 207 206 206 208 212 216 220 225 227 227 226 225 224 223 224 228 230 231 226 221 223 229 234 238 242 246 249 248 247 248 250 251 254 256 256 255 255 255 254 252 249
286 155 202 209 173 224 286 271 201 151 143 318 168 196 248 266 245 205 182 169 170 179 195 198 196 200 197 192 191 189 191 195 198 200 202 202 204 204 205 205 205 208 208 204 200 198 199 200 202 205 205 205 206 208 210 210 211 210 209 209 213 217 221 225 226 227 228 227 227 225 226 231 233 233 234 230 228 231 234 238 245 248 249 251 250 248 249 257 264 263 261 260 259 260 260 259 257
280 121 179 224 178 178 202 273 269 140 145 208 196 195 249 268 224 201 200 171 169 185 200 204 202 204 200 190 189 189 189 193 198 200 200 201 203 205 206 207 206 207 209 209 207 203 201 201 203 205 206 206 207 210 212 214 215 215 216 215 217 220 223 227 227 226 228 227 228 228 229 234 238 239 239 238 238 239 237 238 244 245 246 250 249 245 247 256 265 264 262 262 262 262 262 263 265
190 166 184 242 178 174 196 227 224 154 156 203 180 224 260 270 251 218 224 187 178 200 207 208 208 205 203 193 191 193 194 200 203 201 200 200 202 205 207 208 208 208 209 209 210 208 204 203 204 205 206 205 207 211 213 215 216 215 217 218 220 223 225 228 230 230 232 230 229 230 232 236 240 242 242 243 248 247 240 240 244 244 244 247 246 244 246 250 256 260 262 264 262 261 262 264 265
173 176 180 190 180 207 215 234 240 164 159 208 190 209 239 243 241 233 235 208 194 215 219 220 222 211 205 200 199 200 201 208 206 203 202 201 202 205 206 207 207 207 208 207 207 208 206 204 204 204 206 206 207 209 209 210 210 212 214 217 219 222 224 226 230 233 236 237 235 234 235 238 240 242 243 246 251 252 247 244 243 243 245 246 246 247 250 253 258 262 265 266 264 261 260 260 260
217 184 187 192 189 223 234 252 276 153 153 217 204 212 239 239 238 237 223 200 208 223 222 224 226 214 204 203 206 206 210 215 206 204 203 202 203 205 205 205 204 205 205 205 205 206 206 205 204 205 206 206 207 207 206 206 206 207 211 215 218 220 220 223 228 232 236 239 241 240 240 242 243 243 245 246 249 251 248 245 243 244 248 249 250 252 256 259 261 263 265 266 264 261 259 257 256
255 220 204 207 197 215 254 244 254 139 158 230 213 220 255 251 241 241 201 182 212 214 207 218 221 219 210 202 209 211 215 217 202 203 203 200 201 202 203 202 201 202 202 203 205 206 206 205 205 205 205 206 207 208 208 207 208 208 209 213 217 218 220 223 226 229 233 237 240 242 243 245 246 246 247 247 248 247 246 246 246 249 251 251 251 253 256 258 259 259 259 259 258 258 258 257 254
243 214 186 214 206 184 298 321 247 106 159 257 245 214 251 255 247 244 200 194 216 210 205 211 207 210 213 205 211 213 213 211 197 200 200 198 199 198 199 200 201 203 203 203 205 205 205 205 205 206 206 206 208 209 210 211 213 213 211 213 215 218 223 228 230 232 233 236 239 240 242 244 245 249 252 251 248 247 247 248 251 257 257 255 252 250 251 252 254 256 256 256 256 253 255 257 255
238 182 159 214 202 166 240 271 197 136 137 201 88 206 258 267 268 261 222 210 216 212 214 219 207 203 207 206 206 202 201 203 199 200 196 194 195 195 195 198 201 203 203 203 203 203 203 203 205 206 206 207 209 211 213 214 215 215 215 217 219 221 226 230 234 237 238 238 239 239 240 242 244 248 251 250 249 250 250 253 258 261 261 258 253 248 247 248 252 255 255 254 253 250 251 256 255
242 197 165 193 193 184 197 167 138 36 352 73 79 7 290 254 245 256 240 219 216 215 216 228 231 218 212 213 210 204 200 195 193 196 193 188 190 192 194 198 200 201 202 203 202 202 202 203 205 207 207 208 210 211 213 213 213 213 213 214 218 221 225 228 230 232 233 234 235 237 239 241 242 244 244 245 248 253 256 258 260 261 262 257 249 246 249 253 257 258 254 253 253 251 252 257 256
257 227 192 187 182 168 131 126 109 64 313 272 122 28 288 268 236 241 241 226 223 217 210 221 228 223 218 220 217 213 211 203 195 192 186 185 187 190 194 196 198 200 203 204 204 204 204 204 205 206 208 208 210 212 212 211 211 210 208 207 210 212 214 218 222 225 226 228 231 234 238 241 242 243 243 246 249 255 259 257 257 259 258 251 246 251 258 260 262 260 256 256 257 256 255 255 255
243 246 200 163 147 136 137 143 123 130 228 267 144 173 260 306 272 243 239 231 233 224 214 224 224 215 215 216 213 211 209 208 206 197 185 184 186 187 191 196 198 202 206 206 205 206 205 206 205 206 208 210 211 212 211 211 210 210 210 208 208 207 208 212 218 222 225 226 229 232 236 239 243 245 247 251 254 258 260 256 255 255 251 248 254 266 269 266 265 263 261 260 259 258 253 249 253
233 249 141 131 134 145 157 154 143 176 189 340 40 144 230 286 267 254 232 217 244 243 229 235 228 217 220 216 211 206 200 193 190 192 189 189 189 188 192 197 201 205 207 206 206 207 208 208 208 208 209 211 212 213 211 210 209 209 209 207 206 207 210 212 213 218 222 228 233 236 238 238 241 245 248 254 256 257 261 261 260 259 257 261 269 271 269 265 262 260 259 258 257 257 254 251 254
238 224 134 136 146 153 156 147 134 112 114 299 287 144 183 268 272 288 268 199 248 245 229 234 227 220 221 216 213 210 207 198 187 189 190 191 194 196 198 201 203 206 206 205 206 208 209 210 210 209 210 211 212 212 211 210 209 209 207 206 207 211 216 217 219 224 227 232 236 238 239 240 240 243 247 251 253 252 256 259 261 264 265 269 271 268 263 259 257 256 256 258 263 266 265 263 261
222 145 95 70 81 103 118 134 120 75 102 235 245 186 179 268 278 294 347 209 237 235 232 234 227 226 222 218 218 208 197 188 186 192 194 193 195 199 203 205 206 208 208 207 206 207 208 209 209 209 209 210 210 210 209 209 209 208 207 207 209 213 217 220 221 222 221 221 223 227 233 236 236 235 236 239 244 248 253 257 258 260 262 267 271 270 265 262 261 264 267 269 272 273 271 268 265
138 92 65 40 27 49 59 72 96 92 259 248 242 205 176 270 278 240 215 218 213 213 237 242 232 233 229 218 207 186 172 167 169 173 178 181 183 188 193 196 199 201 204 205 203 202 202 203 205 206 206 206 206 207 206 206 206 208 209 209 211 213 213 212 211 210 211 213 218 222 223 226 228 229 231 234 240 248 254 258 258 258 260 262 266 269 271 271 271 273 275 272 271 270 268 266 265
100 91 98 74 0 17 25 3 63 163 247 262 263 216 163 224 263 244 244 258 225 200 217 231 223 216 207 191 179 175 173 171 171 166 159 157 160 170 176 178 182 187 191 194 196 197 196 197 199 199 201 202 203 203 202 202 204 207 211 212 213 213 212 211 211 213 217 220 220 218 214 218 225 230 236 241 246 252 256 259 260 260 260 259 259 262 268 273 278 281 282 283 281 277 274 271 269
88 115 127 125 28 34 29 264 223 214 245 271 295 297 195 229 256 260 270 276 254 219 213 211 195 181 174 170 172 178 175 171 174 175 178 175 174 179 178 176 178 182 185 188 191 193 194 196 197 196 197 198 199 199 199 201 205 208 210 213 215 216 216 218 220 222 224 223 219 219 222 227 233 238 242 244 249 259 268 278 285 284 281 270 261 263 269 272 276 279 281 284 286 285 282 277 272
132 149 147 152 147 110 206 241 265 247 255 273 280 285 252 266 270 254 253 255 242 229 225 194 168 166 172 174 174 172 175 177 178 182 187 193 195 193 187 184 184 187 189 190 191 193 194 194 195 195 194 194 196 198 199 201 203 205 207 210 212 214 215 217 220 223 223 220 220 226 234 239 242 248 251 255 277 294 293 293 296 301 309 304 279 267 269 271 273 275 278 281 284 288 288 282 279
186 174 146 158 164 151 192 213 208 222 258 285 285 257 193 203 259 250 254 267 237 195 205 154 145 158 158 157 161 163 177 184 179 180 189 197 196 191 186 185 188 191 191 190 191 192 193 192 192 191 189 189 193 195 197 198 199 201 203 203 203 203 206 208 210 213 212 212 219 226 231 236 241 251 264 280 291 291 284 280 279 287 300 307 301 285 276 275 278 278 279 282 286 290 293 291 291
223 157 124 179 186 148 151 183 181 174 167 267 242 233 209 205 270 276 286 330 54 119 124 124 139 156 143 148 173 174 184 188 174 167 176 186 184 180 178 180 184 186 186 186 185 185 186 185 185 186 186 186 188 191 194 196 197 198 199 199 198 198 200 202 204 206 207 207 213 220 222 225 231 238 248 255 263 271 278 276 273 276 282 289 298 300 297 297 300 299 297 296 292 290 292 295 296
187 136 176 214 168 119 121 198 161 108 151 245 205 238 284 300 286 291 318 163 194 171 157 150 164 169 155 168 187 186 191 189 177 167 165 162 161 166 169 171 175 177 179 181 181 181 181 180 179 180 181 181 185 188 189 190 192 194 195 196 197 197 198 200 201 201 200 198 202 209 212 215 225 233 239 245 252 263 273 275 274 277 279 282 289 293 295 297 300 304 305 307 309 306 300 298 296
125 171 212 200 126 104 113 168 13 62 197 265 209 212 269 275 263 316 358 211 231 225 206 195 194 187 179 184 187 189 190 183 173 165 160 149 146 153 158 163 168 171 173 176 176 177 179 178 179 179 179 179 181 184 185 187 189 188 186 186 190 193 193 192 188 183 178 179 188 199 208 219 230 238 244 251 257 261 265 269 271 272 275 278 281 282 285 286 287 293 296 301 308 309 305 303 301
139 191 203 122 156 211 140 157 188 178 219 271 277 236 247 213 224 290 262 225 229 227 217 212 210 202 195 193 192 190 179 164 159 158 156 144 141 144 147 152 156 159 162 165 169 174 177 180 183 183 183 183 182 182 183 184 184 179 175 175 179 179 174 167 167 172 180 189 197 207 218 228 237 245 253 258 264 269 272 275 274 274 275 276 276 276 279 283 284 286 289 292 295 297 298 299 300
69 6 359 54 159 184 186 173 162 165 204 244 279 293 259 229 218 213 221 223 216 212 212 210 208 202 195 190 186 186 177 167 163 161 159 145 139 140 141 146 148 148 150 152 158 166 171 175 180 180 177 174 172 173 174 174 172 170 167 165 166 167 164 165 172 183 193 198 206 215 222 231 238 247 258 263 272 282 288 294 294 294 289 284 282 282 286 294 291 285 284 289 293 294 295 296 297
142 74 171 233 215 145 200 221 138 131 167 204 222 273 266 250 214 199 222 232 216 206 205 208 210 204 199 190 184 186 181 176 168 158 155 144 138 137 137 142 145 145 146 146 149 154 158 160 163 164 162 160 162 166 169 171 169 168 168 167 171 176 179 183 187 192 196 198 204 210 212 221 229 239 250 258 280 319 335 333 326 322 319 308 299 294 292 296 294 288 281 283 289 293 295 297 299
171 175 185 190 187 138 168 242 236 136 171 183 172 238 270 256 214 212 241 251 234 210 199 203 208 203 202 197 193 192 182 178 172 159 153 145 141 139 138 140 143 145 146 146 147 148 150 153 156 159 160 161 165 168 171 172 171 171 173 174 177 181 182 186 188 188 189 186 184 183 178 174 177 182 163 117 90 79 70 60 52 36 26 24 20 10 341 315 301 296 288 283 288 294 298 300 301